ALESUND / VIGRA current weather conditions

sailwx.info

Wind from 070 at 4 knots

Air temperature 6.0° C
Visibility: greater than 5.4 NM
Dewpoint 2.0° C

Last reported at 2015-Mar-01 06:50 UTC.
Time now 2015-Mar-01 08:32 UTC

Location: N 62°34' E 006°07'.
View on Google Maps.

See reports from other nearby stations

  
Tides and Currents Weather Stations Pressure Air Temp Water Temp Dewpoint Dewpoint Depression Visibility Wind Speed Wind Dir Waves Ship Positions
date/time (UTC)wind fromknots sea level pressurealtimeterstation pressurevisibilityair tempwater tempwave heightnotes
2015-Mar-01 06:50 070 4 5.4 6.0
2015-Mar-01 06:20 100 8 7.0
2015-Mar-01 05:50 080 4 6.0
2015-Mar-01 05:20 170 5 8.0
2015-Mar-01 04:50 160 8 5.4 8.0
2015-Mar-01 04:20 180 6 5.4 7.0
2015-Mar-01 03:50 160 7 5.4 6.0
2015-Mar-01 03:20 220 3 5.4 6.0
2015-Mar-01 02:50 200 3 5.4 6.0
2015-Mar-01 02:20 130 3 5.4 6.0
2015-Mar-01 01:50 5.4 6.0
2015-Mar-01 01:20 160 4 5.4 7.0
2015-Mar-01 00:50 170 5 5.4 7.0
2015-Mar-01 00:20 180 4 5.4 7.0
2015-Feb-28 23:50 180 6 5.4 7.0 Light drizzle.
2015-Feb-28 23:20 150 4 5.4 7.0
2015-Feb-28 22:50 160 3 5.4 6.0
2015-Feb-28 22:20 200 5 5.4 6.0
2015-Feb-28 21:20 170 4 5.4 6.0
2015-Feb-28 20:20 220 12 5.4 7.0
2015-Feb-28 19:50 210 12 5.4 7.0
2015-Feb-28 19:20 210 12 5.4 7.0
2015-Feb-28 18:50 210 13 5.4 7.0
2015-Feb-28 18:20 210 13 5.4 7.0
2015-Feb-28 17:50 210 14 5.4 7.0
2015-Feb-28 17:20 210 16 5.4 7.0 Light drizzle.
2015-Feb-28 16:20 200 15 5.4 7.0
2015-Feb-28 15:50 210 17 5.4 7.0
2015-Feb-28 15:20 200 12 5.4 6.0 Light drizzle.
2015-Feb-28 14:50 200 15 5.4 6.0 Light drizzle.
2015-Feb-28 14:20 200 16 5.4 6.0
2015-Feb-28 13:50 200 18 5.4 6.0 Light drizzle.
2015-Feb-28 13:20 210 18 gusting 27 5.4 7.0
2015-Feb-28 12:50 210 20 gusting 32 5.4 7.0
2015-Feb-28 12:20 200 18 5.4 7.0
2015-Feb-28 11:20 200 17 gusting 27 5.4 7.0
2015-Feb-28 10:50 200 16 5.4 7.0
2015-Feb-28 10:20 180 20 gusting 31 5.4 7.0
2015-Feb-28 09:50 180 22 gusting 33 5.4 7.0
2015-Feb-28 09:20 180 24 gusting 34 5.4 7.0
2015-Feb-28 08:50 180 26 gusting 37 5.4 6.0
2015-Feb-28 07:50 190 22 7.0
2015-Feb-28 07:20 190 22 gusting 36 5.4 7.0
2015-Feb-28 06:50 190 25 gusting 37 5.4 7.0
2015-Feb-28 06:20 190 22 5.4 6.0
2015-Feb-28 05:50 190 18 gusting 32 5.4 6.0
2015-Feb-28 04:50 190 16 5.4 6.0
2015-Feb-28 04:20 200 19 gusting 29 5.4 6.0
2015-Feb-28 03:50 210 19 5.4 6.0
2015-Feb-28 03:20 200 16 5.4 7.0
2015-Feb-28 02:50 190 16 gusting 27 5.4 6.0
2015-Feb-28 02:20 190 14 5.4 6.0
2015-Feb-28 01:50 190 12 5.4 6.0
2015-Feb-28 01:20 200 15 5.4 6.0
2015-Feb-28 00:50 190 15 5.4 5.0
2015-Feb-27 23:50 200 15 5.4 6.0
2015-Feb-27 22:50 210 20 5.4 6.0
2015-Feb-27 21:50 220 22 5.4 6.0 Showers in the vicinity.
2015-Feb-27 21:20 210 20 gusting 30 5.4 6.0
2015-Feb-27 20:50 210 18 5.4 6.0
2015-Feb-27 20:20 220 24 5.4 6.0
2015-Feb-27 19:50 220 23 gusting 35 5.4 6.0
2015-Feb-27 19:20 220 25 5.4 6.0
2015-Feb-27 18:50 220 22 5.4 6.0
2015-Feb-27 18:20 230 26 5.4 6.0 Rain showers.
2015-Feb-27 17:50 220 27 4.3 6.0 Light drizzle.
2015-Feb-27 17:20 220 17 5.4 6.0 Light drizzle.
2015-Feb-27 16:50 220 30 2.1 5.0 Rain showers.
2015-Feb-27 16:20 190 17 5.4 6.0
2015-Feb-27 15:50 190 20 5.4 5.0 Rain showers.
2015-Feb-27 15:20 200 19 gusting 29 5.4 5.0 Rain showers.
2015-Feb-27 14:50 200 20 5.4 5.0
2015-Feb-27 14:20 200 20 5.4 4.0 Light drizzle.
2015-Feb-27 13:50 200 23 gusting 33 5.4 5.0
2015-Feb-27 13:20 200 19 gusting 34 5.4 6.0 Showers in the vicinity.
2015-Feb-27 12:50 200 17 5.4 6.0
2015-Feb-27 12:20 190 17 gusting 29 5.4 7.0
2015-Feb-27 11:50 190 19 5.4 7.0 Showers in the vicinity.
2015-Feb-27 11:20 190 20 5.4 7.0
2015-Feb-27 10:20 180 20 gusting 31 5.4 6.0
2015-Feb-27 09:50 180 17 5.4 6.0
2015-Feb-27 09:20 190 19 gusting 31 5.4 6.0
2015-Feb-27 08:50 190 16 gusting 26 5.4 6.0
2015-Feb-27 08:20 190 17 5.4 6.0